GW3047 Weather Reports


Display with metric or nautical units.
time (UTC)temp
F
wind
direction
speed
MPH
gust
MPH
rain 1hr
in
rain 24hr
in
rain mn
in
humidity
%
barometer
mb
20260509171559 79 212 10.0 19.0 0.00 0.00 0.00 25 1010.7
20260509170059 78 208 11.0 18.0 0.00 0.00 0.00 25 1010.9
20260509164607 77 201 11.0 20.0 0.00 0.00 0.00 26 1011.0
20260509163105 76 247 7.0 16.0 0.00 0.00 0.00 29 1011.1
20260509161600 75 210 6.0 15.0 0.00 0.00 0.00 30 1011.4
20260509160057 74 226 7.0 19.0 0.00 0.00 0.00 32 1011.5
20260509154558 73 219 10.0 21.0 0.00 0.00 0.00 31 1011.7
20260509153057 72 187 10.0 22.0 0.00 0.00 0.00 33 1011.8
20260509151605 70 188 8.0 18.0 0.00 0.00 0.00 35 1012.0
20260509150056 68 216 8.0 19.0 0.00 0.00 0.00 37 1012.2
20260509144556 67 215 8.0 16.0 0.00 0.00 0.00 39 1012.4
20260509143059 65 237 7.0 14.0 0.00 0.00 0.00 42 1012.6
20260509141559 63 186 5.0 14.0 0.00 0.00 0.00 45 1012.7
20260509140059 62 216 8.0 17.0 0.00 0.00 0.00 46 1012.9
20260509134556 60 227 8.0 22.0 0.00 0.00 0.00 47 1012.8
20260509133103 58 230 8.0 14.0 0.00 0.00 0.00 51 1012.8
20260509131602 56 228 6.0 12.0 0.00 0.00 0.00 55 1012.7
20260509124558 54 220 3.0 7.0 0.00 0.00 0.00 58 1012.4
20260509123056 54 198 4.0 8.0 0.00 0.00 0.00 56 1012.4
20260509121556 55 266 5.0 9.0 0.00 0.00 0.00 56 1012.2
20260509114558 55 241 3.0 8.0 0.00 0.00 0.00 54 1012.2
20260509113109 55 231 3.0 9.0 0.00 0.00 0.00 54 1012.1
20260509111604 55 213 3.0 6.0 0.00 0.00 0.00 55 1012.0
20260509110057 55 199 3.0 6.0 0.00 0.00 0.00 56 1011.9
20260509104557 55 209 4.0 9.0 0.00 0.00 0.00 53 1011.8
20260509103104 56 233 4.0 8.0 0.00 0.00 0.00 52 1011.9
20260509101558 56 215 3.0 11.0 0.00 0.00 0.00 50 1012.0
20260509100054 57 190 5.0 10.0 0.00 0.00 0.00 49 1011.9
20260509094556 57 207 5.0 9.0 0.00 0.00 0.00 49 1012.0
20260509093055 57 189 4.0 10.0 0.00 0.00 0.00 49 1012.0
20260509091606 57 199 5.0 9.0 0.00 0.00 0.00 48 1012.2
20260509090056 56 208 5.0 9.0 0.00 0.00 0.00 49 1012.2
20260509084558 56 197 3.0 8.0 0.00 0.00 0.00 50 1012.1
20260509083054 56 170 3.0 7.0 0.00 0.00 0.00 49 1012.0
20260509081603 56 206 4.0 9.0 0.00 0.00 0.00 49 1012.2
20260509080059 56 185 3.0 10.0 0.00 0.00 0.00 50 1012.4
20260509074556 55 189 1.0 4.0 0.00 0.00 0.00 51 1012.4
20260509073057 55 189 1.0 4.0 0.00 0.00 0.00 51 1012.6
20260509071559 55 189 0.0 5.0 0.00 0.00 0.00 53 1012.7
20260509070104 55 191 1.0 4.0 0.00 0.00 0.00 54 1012.6
20260509064557 55 0 0.0 3.0 0.00 0.00 0.00 55 1012.6
20260509063055 55 195 1.0 3.0 0.00 0.00 0.00 54 1012.9
20260509061613 56 195 0.0 5.0 0.00 0.00 0.00 55 1013.1
20260509060118 56 195 1.0 4.0 0.00 0.00 0.00 56 1013.2
20260509054600 56 195 3.0 5.0 0.00 0.00 0.00 56 1013.3
20260509053056 56 106 1.0 3.0 0.00 0.00 0.00 57 1013.1
20260509051559 57 34 0.0 2.0 0.00 0.00 0.00 58 1012.9
20260509050127 57 0 0.0 2.0 0.00 0.00 0.00 56 1012.9
20260509044603 58 34 1.0 2.0 0.00 0.00 0.00 54 1012.9
20260509043054 59 0 0.0 1.0 0.00 0.00 0.00 51 1012.7
20260509041555 59 0 0.0 1.0 0.00 0.00 0.00 49 1012.7
20260509040057 60 0 0.0 0.0 0.00 0.00 0.00 48 1012.6
20260509034557 61 34 0.0 1.0 0.00 0.00 0.00 46 1012.4
20260509033059 62 0 0.0 0.0 0.00 0.00 0.00 44 1012.4
20260509031600 63 0 0.0 1.0 0.00 0.00 0.00 43 1012.3
20260509030057 64 0 0.0 1.0 0.00 0.00 0.00 41 1012.1
20260509024602 65 34 0.0 1.0 0.00 0.00 0.00 40 1011.9
20260509023109 66 0 0.0 1.0 0.00 0.00 0.00 38 1011.8
20260509021559 67 0 0.0 1.0 0.00 0.00 0.00 37 1011.8
20260509020100 68 0 0.0 1.0 0.00 0.00 0.00 35 1011.8
20260509014558 70 0 0.0 1.0 0.00 0.00 0.00 33 1011.8
20260509013103 71 0 0.0 2.0 0.00 0.00 0.00 31 1011.8
20260509011556 72 0 0.0 3.0 0.00 0.00 0.00 28 1011.6
20260509010057 73 0 0.0 5.0 0.00 0.00 0.00 27 1011.5
20260509004600 74 329 1.0 8.0 0.00 0.00 0.00 27 1011.3
20260509003106 74 328 2.0 11.0 0.00 0.00 0.00 27 1011.4
20260509001557 75 64 2.0 11.0 0.00 0.00 0.00 26 1011.2
20260509000110 75 345 2.0 9.0 0.00 0.00 0.00 26 1011.3
20260508234559 75 1 2.0 10.0 0.00 0.00 0.00 26 1011.4
20260508233103 75 31 4.0 12.0 0.00 0.00 0.00 25 1011.4
20260508231559 75 38 4.0 13.0 0.00 0.00 0.00 26 1011.3
20260508230107 75 348 2.0 10.0 0.00 0.00 0.00 26 1011.3
20260508224557 75 19 4.0 14.0 0.00 0.00 0.00 25 1011.3
20260508223058 74 39 4.0 14.0 0.00 0.00 0.00 27 1011.4
20260508221604 75 33 6.0 13.0 0.00 0.00 0.00 26 1011.4
20260508220059 76 29 4.0 13.0 0.00 0.00 0.00 26 1011.5
20260508214611 76 1 4.0 11.0 0.00 0.00 0.00 26 1011.5
20260508213058 77 312 7.0 17.0 0.00 0.00 0.00 26 1011.6
20260508211600 77 324 2.0 10.0 0.00 0.00 0.00 27 1011.7
20260508210057 76 86 3.0 11.0 0.00 0.00 0.00 28 1011.7
20260508204604 76 333 5.0 12.0 0.00 0.00 0.00 27 1011.8
20260508203055 75 314 6.0 17.0 0.00 0.00 0.00 27 1011.8
20260508201607 75 352 5.0 16.0 0.00 0.00 0.00 28 1011.8
20260508200058 76 338 3.0 16.0 0.00 0.00 0.00 27 1011.9
20260508194621 75 54 5.0 15.0 0.00 0.00 0.00 31 1011.9
20260508193107 75 332 4.0 16.0 0.00 0.00 0.00 29 1012.1
20260508191602 75 352 6.0 15.0 0.00 0.00 0.00 32 1012.1
20260508190100 74 337 6.0 16.0 0.00 0.00 0.00 30 1012.2
20260508184556 73 36 8.0 23.0 0.00 0.00 0.00 31 1012.2
20260508183056 73 324 7.0 20.0 0.00 0.00 0.00 31 1012.1
20260508181636 72 337 6.0 19.0 0.00 0.00 0.00 32 1012.3
20260508174603 73 16 7.0 16.0 0.00 0.00 0.00 33 1012.5
20260508173057 73 343 6.0 14.0 0.00 0.00 0.00 35 1012.4